Preview of NWS' New Version of Forecast
This preview is not operational and should not be used for support decisions.

Regional Weather Roundup (RWR)

Issued by National Weather Service (NWS)

                            
000
ASUS46 KPQR 180010
RWROR 

OREGON REGIONAL WEATHER ROUNDUP
NATIONAL WEATHER SERVICE PORTLAND OR
500 PM PDT WED APR 17 2019

NOTE: "FAIR" INDICATES FEW OR NO CLOUDS BELOW 12,000 FEET WITH
NO SIGNIFICANT WEATHER AND/OR OBSTRUCTIONS TO VISIBILITY.

ORZ001>013-180100-
NORTHWEST OREGON

  
CITY           SKY/WX    TMP DP  RH WIND       PRES   REMARKS
ASTORIA        PTSUNNY   56  48  74 SW18G25   30.31S                  
6HR MIN TEMP:  53; 6HR MAX TEMP:  59;                                

TILLAMOOK      PTSUNNY   61  52  72 W8        30.33S                  
NEWPORT        SUNNY     55  48  76 W3        30.34F                  
PORTLAND       MOSUNNY   65  44  46 N3        30.31F                  
6HR MIN TEMP:  56; 6HR MAX TEMP:  65;                                

VANCOUVER WA   SUNNY     65  44  46 CALM      30.29F                  
6HR MIN TEMP:  55; 6HR MAX TEMP:  65;                                

SCAPPOOSE      SUNNY     65  47  52 S3        30.31F                  
6HR MIN TEMP:  56; 6HR MAX TEMP:  65;                                

HILLSBORO      MOSUNNY   64  44  48 VRB5      30.30F                  
6HR MIN TEMP:  55; 6HR MAX TEMP:  64; 6HR PCP: TRACE;                

AURORA         SUNNY     65  49  56 W7        30.31F                  
6HR MIN TEMP:  55; 6HR MAX TEMP:  65;                                

MCMINNVILLE    SUNNY     63  47  55 W5        30.30F                  
6HR MIN TEMP:  56; 6HR MAX TEMP:  64;                                

SALEM          MOSUNNY   65  47  52 N5        30.29F                  
6HR MIN TEMP:  57; 6HR MAX TEMP:  65;                                

CORVALLIS      SUNNY     66  49  54 NE3       30.30F                  
EUGENE         PTSUNNY   68  50  52 N9        30.28F                  
6HR MIN TEMP:  57; 6HR MAX TEMP:  68;                                

$$

ORZ021-028-180100-
SOUTHWEST OREGON

  
CITY           SKY/WX    TMP DP  RH WIND       PRES   REMARKS
NORTH BEND     MOSUNNY   58  50  75 NW9       30.31F                  
6HR MIN TEMP:  56; 6HR MAX TEMP:  60; 6HR PCP: TRACE;                

BROOKINGS      SUNNY     62  52  69 VRB3      30.25F                  
ROSEBURG       SUNNY     71  45  39 W5        30.25F                  
6HR MIN TEMP:  59; 6HR MAX TEMP:  72;                                

SEXTON SUMMIT  SUNNY     59  42  53 VRB3      30.30F                  
6HR MIN TEMP:  50; 6HR MAX TEMP:  60;                                

GRANTS PASS    FAIR      72  43  35 CALM      30.25F                  
MEDFORD        SUNNY     72  41  32 N3        30.23F                  
6HR MIN TEMP:  58; 6HR MAX TEMP:  72;                                

$$

ORZ014>016-041-180100-
COLUMBIA GORGE

  
CITY           SKY/WX    TMP DP  RH WIND       PRES   REMARKS
TROUTDALE      SUNNY     65  45  48 VRB5      30.30F                  
6HR MIN TEMP:  55; 6HR MAX TEMP:  65;                                

HOOD RIVER     SUNNY     63  45  51 MISG      30.25F                  
THE DALLES     SUNNY     66  43  43 NW13G23   30.23F                  
6HR MIN TEMP:  58; 6HR MAX TEMP:  67;                                

$$

ORZ029>031-041-044-049-050-061>064-502-503-505>511-180100-
EASTERN OREGON

  
CITY           SKY/WX    TMP DP  RH WIND       PRES   REMARKS
MADRAS         SUNNY     64  37  36 CALM      30.26F                  
REDMOND        SUNNY     68  28  22 VRB6      30.25F                  
6HR MIN TEMP:  57; 6HR MAX TEMP:  69;                                

BEND           SUNNY     68  28  22 NW8G15    30.25S                  
PRINEVILLE     SUNNY     64  32  29 W5        30.26F                  
KLAMATH FALLS  SUNNY     65  35  33 VRB3      30.26F                  
6HR MIN TEMP:  53; 6HR MAX TEMP:  67;                                

LAKEVIEW       SUNNY     62  40  44 E6        30.28F                  
HERMISTON      SUNNY     70  39  32 SW12      30.21F                  
6HR MIN TEMP:  62; 6HR MAX TEMP:  70;                                

PENDLETON      SUNNY     64  42  44 W13       30.23F                  
6HR MIN TEMP:  57; 6HR MAX TEMP:  64;                                

JOHN DAY       CLOUDY    61  40  46 S5        30.26F                  
MEACHAM        MOSUNNY   54  38  54 VRB3      30.27F                  
6HR MIN TEMP:  44; 6HR MAX TEMP:  54;                                

LA GRANDE      SUNNY     58  40  51 VRB7      30.27F                  
6HR MIN TEMP:  48; 6HR MAX TEMP:  58;                                

BAKER CITY     SUNNY     60  37  42 VRB3      30.26F                  
6HR MIN TEMP:  53; 6HR MAX TEMP:  61;                                

BURNS          MOSUNNY   65  37  35 NW10      30.26S                  
6HR MIN TEMP:  53; 6HR MAX TEMP:  65;                                

ROME             N/A     63  37  38 NE8       30.24S                  
6HR MIN TEMP:  54; 6HR MAX TEMP:  66;                                

ONTARIO        SUNNY     68  38  33 N9G20     30.25F                  
6HR MIN TEMP:  61; 6HR MAX TEMP:  69;                                

$$